User: anonymous
Location: Turtle Rock Observatory
(36.6913°N, 81.9708°W)
Time: 03:05:10
(UTC-04:00)
Language:

Cosmos 1125 Rocket - Orbit

View from above orbital plane
View from above orbital plane
View from above satellite
View from above satellite

Ground track
Ground track

The orbit data is extracted from the following two-line orbital elements,

1 11511U 79078B   14293.14006631  .00000451  00000-0  16250-3 0  9245
2 11511 074.0360 299.7968 0014737 057.2113 006.6567 14.36467963839180
Epoch (UTC): 20 October 2014 03:21:41
Eccentricity: 0.0014737
inclination: 74.0360°
perigee height: 759 km
apogee height: 781 km
right ascension of ascending node: 299.7968°
argument of perigee: 57.2113°
revolutions per day: 14.36467963
mean anomaly at epoch: 6.6567°
orbit number at epoch: 83918

The dashed part of the orbit path shows where the satellite is in the earth's shadow,  

DLR